User: anonymous   Login
Location: Unspecified
(0.0000°N, 0.0000°E)
Time: 00:58:10
(UTC+00:00)
Language:

YAOGAN 12 - Orbit

View from above orbital plane
View from above orbital plane
View from above satellite
View from above satellite

Ground track
Ground track

The orbit is defined by the following mean orbital elements,

1 37875U          26145.58407284 +.00000000 +00000-0 +31496-3 0 00005
2 37875  97.1160 185.2189 0008442 313.4401  46.6135 15.26265905    00
Epoch (UTC): 25 May 2026 14:01:03
Eccentricity: 0.0008442
inclination: 97.1160°
perigee height: 481 km
apogee height: 493 km
right ascension of ascending node: 185.2189°
argument of perigee: 313.4401°
revolutions per day: 15.26265905
mean anomaly at epoch: 46.6135°

The dashed part of the orbit path shows where the satellite is in the earth's shadow,  

DLR